OBJECT V
1 43777U 18099V 18350.87231002 -.00000019 00000-0 35789-5 0 9993
2 43777 97.7635 59.8937 0013357 218.7086 141.3077 14.94724835 1954
OBJECT W
1 43778U 18099W 18350.73832127 .00000503 00000-0 51605-4 0 9995
2 43778 97.7586 59.7477 0013300 218.8518 141.1747 14.94739786 1512
OBJECT X
1 43779U 18099X 18350.73742958 .00000386 00000-0 40741-4 0 9996
2 43779 97.7687 59.7710 0013966 213.7017 146.3317 14.94842596 1920
MOVE-II
1 43780U 18099Y 18350.73734746 .00000633 00000-0 63324-4 0 9991
2 43780 97.7659 59.7587 0012916 220.4287 139.5975 14.94855846 1927
OBJECT Z
1 43781U 18099Z 18350.73707463 .00000577 00000-0 58211-4 0 9994
2 43781 97.7606 59.7535 0013117 212.3593 147.6825 14.94887778 1931
SNUSat 2
1 43782U 18099AA 18350.73667016 .00000471 00000-0 48408-4 0 9994
2 43782 97.7674 59.7650 0012225 208.8863 151.1682 14.94932911 1935
OBJECT AB
1 43783U 18099AB 18350.80259473 .00000278 00000-0 30682-4 0 9997
2 43783 97.7664 59.8307 0013147 212.6377 147.4032 14.95046846 1933
OBJECT AC
1 43784U 18099AC 18350.73601193 .00000361 00000-0 38241-4 0 9992
2 43784 97.7638 59.7573 0014420 218.2148 141.8051 14.95008094 1945
OBJECT AD
1 43785U 18099AD 18350.80295997 .00000649 00000-0 64536-4 0 9997
2 43785 97.7604 59.8178 0013252 206.4245 153.6301 14.95007308 1508
ITASat 1
1 43786U 18099AE 18350.73585158 .00000426 00000-0 44152-4 0 9996
2 43786 97.7692 59.7702 0014521 217.0533 142.9686 14.95027725 1946
UNKNOWN SAT 1
1 43787U 18099AF 18350.73579289 .00000627 00000-0 62477-4 0 9998
2 43787 97.7582 59.7546 0013651 215.1701 144.8620 14.95037894 1947
OBJECT AG
1 43788U 18099AG 18350.73538468 .00000553 00000-0 55692-4 0 9992
2 43788 97.7665 59.7635 0014277 218.5554 141.4648 14.95078973 1932
OBJECT AH
1 43789U 18099AH 18350.86650622 .00000410 00000-0 42347-4 0 9999
2 43789 97.7666 59.8988 0015293 215.5270 144.4933 14.95397860 1655
EAGLET 1
1 43790U 18099AJ 18350.79940698 .00000259 00000-0 28667-4 0 9998
2 43790 97.7681 59.8387 0012604 222.1567 137.8685 14.95417921 1643
OBJECT AK
1 43791U 18099AK 18350.73226755 .00000273 00000-0 29975-4 0 9993
2 43791 97.7666 59.7671 0012480 218.7249 141.3078 14.95440331 1931
ESEO
1 43792U 18099AL 18350.79906522 .00000079 00000-0 12373-4 0 9995
2 43792 97.7665 59.8379 0012503 218.9435 141.0886 14.95451099 1704
CSIM
1 43793U 18099AM 18350.86576801 .00000597 00000-0 59145-4 0 9990
2 43793 97.7611 59.8843 0012621 216.4223 143.6140 14.95483131 1681
OBJECT AP
1 43795U 18099AP 18350.79805200 .00000453 00000-0 46075-4 0 9991
2 43795 97.7617 59.8251 0013084 221.4491 138.5739 14.95574567 1938
OBJECT AQ
1 43796U 18099AQ 18350.79762566 .00000272 00000-0 29701-4 0 9995
2 43796 97.7660 59.8366 0014779 203.2329 156.8225 14.95624618 1941
RANGE A
1 43798U 18099AS 18350.19524812 .00000160 00000-0 19604-4 0 9998
2 43798 97.7668 59.2411 0012032 203.6220 156.4450 14.95653613 1842
OBJECT AU
1 43800U 18099AU 18350.87035488 .00000328 00000-0 35287-4 0 9994
2 43800 97.7665 59.8963 0013544 212.3455 147.6937 14.94952239 1956
OBJECT AV
1 43801U 18099AV 18350.86886316 .00000419 00000-0 43458-4 0 9998
2 43801 97.7630 59.8873 0013758 209.3347 150.7103 14.95126121 1956
JO-97
1 43803U 18099AX 18350.86882931 .00000455 00000-0 46702-4 0 9994
2 43803 97.7648 59.8924 0014504 217.6050 142.4158 14.95130586 1955
Suomi 100
1 43804U 18099AY 18350.86875858 .00000419 00000-0 43390-4 0 9995
2 43804 97.7647 59.8921 0014574 217.7343 142.2856 14.95138596 1968
Al Farabi 2
1 43805U 18099AZ 18350.86863973 .00000531 00000-0 53610-4 0 9992
2 43805 97.7647 59.8922 0014650 217.8980 142.1210 14.95153967 1965
OBJECT BA
1 43806U 18099BA 18350.86852120 .00000359 00000-0 37942-4 0 9993
2 43806 97.7649 59.8892 0014269 215.8423 144.1841 14.95164272 1659
MinXSS 2
1 43807U 18099BB 18350.86777683 .00000420 00000-0 43371-4 0 9996
2 43807 97.7664 59.8994 0012347 212.9642 147.0810 14.95249847 1364
OBJECT BC
1 43808U 18099BC 18350.86761136 .00000460 00000-0 47073-4 0 9990
2 43808 97.7667 59.9085 0011579 222.6151 137.4172 14.95267397 1644
OBJECT BD
1 43809U 18099BD 18350.80046443 .00000295 00000-0 32047-4 0 9993
2 43809 97.7665 59.8324 0014508 219.4630 140.5535 14.95296823 1643
OBJECT BC
1 43810U 18099BE 18350.86730820 .00000282 00000-0 30874-4 0 9992
2 43810 97.7577 59.8852 0013815 213.5921 146.4425 14.95299456 1504
OBJECT BF
1 43811U 18099BF 18350.86721736 .00000343 00000-0 36367-4 0 9990
2 43811 97.7663 59.9002 0012406 214.6640 145.3773 14.95312785 1509
OBJECT BG
1 43812U 18099BG 18350.86714303 .00000274 00000-0 30080-4 0 9992
2 43812 97.7651 59.9004 0012849 218.5346 141.4958 14.95319182 1540
OBJECT BH
1 43813U 18099BH 18350.86698347 .00000412 00000-0 42637-4 0 9997
2 43813 97.7737 59.9115 0013488 206.4811 153.5722 14.95342803 1642
OBJECT BJ
1 43814U 18099BJ 18350.73737547 -.00000129 00000-0 -65344-5 0 9998
2 43814 97.7659 59.7573 0012391 219.7764 140.2548 14.94846251 1338
OBJECT BK
1 43815U 18099BK 18348.65957586 -.00001404 00000-0 -12232-3 0 9997
2 43815 97.7674 57.7120 0012103 228.4282 131.6401 14.95214089 1325
OBJECT BL
1 43816U 18099BL 18348.65947083 .00000171 00000-0 20802-4 0 9990
2 43816 97.7682 57.7100 0012417 211.0738 148.9757 14.95243196 1174
OBJECT BM
1 43817U 18099BM 18348.45868493 .00000500 00000-0 50641-4 0 9996
2 43817 97.7662 57.5076 0012006 214.1520 145.8904 14.95251415 1140
OBJECT BN
1 43818U 18099BN 18348.52560673 -.00000030 00000-0 25767-5 0 9995
2 43818 97.7693 57.5803 0012299 218.9164 141.1241 14.95246060 1304
OBJECT BP
1 43819U 18099BP 18350.86749433 -.00000349 00000-0 -26377-4 0 9990
2 43819 97.7646 59.8999 0012364 219.7843 140.2496 14.95274016 1540
OBJECT BQ
1 43820U 18099BQ 18350.39901456 .00000055 00000-0 10261-4 0 9992
2 43820 97.7625 59.4300 0011335 211.4038 148.6024 14.95285056 1289
OBJECT BR
1 43821U 18099BR 18348.65912459 -.00000182 00000-0 -11210-4 0 9992
2 43821 097.7651 057.7175 0012329 228.0444 131.9640 14.95283737001327
/EX
1
0
SB KEPS @ AMSAT $ORB18350.N
2Line Orbital Elements 18350.AMSAT
HR AMSAT ORBITAL ELEMENTS FOR AMATEUR SATELLITES IN NASA FORMAT
FROM WA5QGD FORT WORTH,TX December 16, 2018
BID: ORB18350.N
DECODE 2-LINE ELSETS WITH THE FOLLOWING KEY:
1 AAAAAU 00 0 0 BBBBB.BBBBBBBB .CCCCCCCC 00000-0 00000-0 0 DDDZ
2 AAAAA EEE.EEEE FFF.FFFF GGGGGGG HHH.HHHH III.IIII JJ.JJJJJJJJKKKKKZ
KEY: A-CATALOGNUM B-EPOCHTIME C-DECAY D-ELSETNUM E-INCLINATION F-RAAN
G-ECCENTRICITY H-ARGPERIGEE I-MNANOM J-MNMOTION K-ORBITNUM Z-CHECKSUM
TO ALL RADIO AMATEURS BT
AO-07
1 07530U 74089B 18349.88240068 -.00000024 00000-0 13225-3 0 9997
2 07530 101.7163 314.6539 0012215 345.4752 68.6651 12.53635792 17360
UO-11
1 14781U 84021B 18349.90209652 .00000034 00000-0 10346-4 0 9999
2 14781 097.6303 018.1686 0007981 197.1284 162.9662 14.83051044850373
LO-19
1 20442U 90005G 18350.81336713 -.00000009 00000-0 13153-4 0 9992
2 20442 98.6291 288.3238 0011353 336.9156 23.1516 14.32912701510047
HUBBLE
1 20580U 90037B 18350.18082506 .00000410 00000-0 14059-4 0 9999
2 20580 28.4707 351.9330 0002436 302.0389 133.6760 15.09145033372985
MET-2/21
1 22782U 93055A 18350.87569368 .00000060 00000-0 41015-4 0 9993
2 22782 82.5487 308.9380 0021815 337.7078 76.9470 13.83814151277442
AO-27
1 22825U 93061C 18349.92691305 .00000011 00000-0 22070-4 0 9995
2 22825 98.8850 329.5371 0008488 170.1935 189.9414 14.30046902315546
IO-26
1 22826U 93061D 18350.53116968 .00000011 00000-0 22063-4 0 9994
2 22826 98.8791 330.1684 0009223 158.3582 201.7991 14.30379435315824
FO-29
1 24278U 96046B 18350.50282946 -.00000024 00000-0 11881-4 0 9991
2 24278 98.5136 164.1270 0350329 358.0168 1.9564 13.53088155102895
